Time,TemperatureF,DewpointF,PressureIn,WindDirection,WindDirectionDegrees,WindSpeedMPH,WindSpeedGustMPH,Humidity,HourlyPrecipIn,Conditions,Clouds,dailyrainin,SoftwareType,DateUTC
2013-03-31 20:22:00,56.7,43.4,29.92,ENE,62,0.0,0.0,61,0.00,,,0.01,Wunderground v.1.15,2013-04-01 01:22:00,
2013-03-31 20:23:00,56.7,43.4,29.92,ENE,62,0.0,0.0,61,0.00,,,0.01,Wunderground v.1.15,2013-04-01 01:23:00,
2013-03-31 20:24:00,56.6,43.3,29.92,ENE,63,0.0,0.0,61,0.00,,,0.01,Wunderground v.1.15,2013-04-01 01:24:00,
2013-03-31 20:30:00,55.9,43.1,29.92,SSW,198,1.0,1.0,62,0.00,,,0.01,Wunderground v.1.15,2013-04-01 01:30:00,
2013-03-31 20:35:00,55.5,43.1,29.92,SSW,209,0.0,1.0,63,0.00,,,0.01,Wunderground v.1.15,2013-04-01 01:35:00,
2013-03-31 20:40:00,55.0,43.0,29.92,SSW,209,0.0,1.0,64,0.00,,,0.01,Wunderground v.1.15,2013-04-01 01:40:00,
2013-03-31 20:46:00,54.3,43.2,29.92,SSW,209,0.0,0.0,66,0.00,,,0.01,Wunderground v.1.15,2013-04-01 01:46:00,
2013-03-31 20:52:00,53.6,43.3,29.93,SSW,209,0.0,0.0,68,0.00,,,0.01,Wunderground v.1.15,2013-04-01 01:52:00,
2013-03-31 20:57:00,53.1,42.8,29.93,SSW,209,0.0,0.0,68,0.00,,,0.01,Wunderground v.1.15,2013-04-01 01:57:00,
2013-03-31 21:02:00,52.6,43.1,29.93,SW,229,0.0,0.0,70,0.00,,,0.01,Wunderground v.1.15,2013-04-01 02:02:00,
2013-03-31 21:07:00,52.1,43.0,29.93,SW,226,0.0,2.0,71,0.00,,,0.01,Wunderground v.1.15,2013-04-01 02:07:00,
2013-03-31 21:12:00,51.6,42.9,29.93,SW,226,0.0,1.0,72,0.00,,,0.01,Wunderground v.1.15,2013-04-01 02:12:00,
2013-03-31 21:17:00,51.2,42.8,29.93,SSW,210,0.0,1.0,73,0.00,,,0.01,Wunderground v.1.15,2013-04-01 02:17:00,
2013-03-31 21:22:00,50.8,42.8,29.94,SSW,210,1.0,1.0,74,0.00,,,0.01,Wunderground v.1.15,2013-04-01 02:22:00,
2013-03-31 21:27:00,50.5,42.5,29.94,SSW,212,0.0,1.0,74,0.00,,,0.01,Wunderground v.1.15,2013-04-01 02:27:00,
2013-03-31 21:32:00,50.1,42.5,29.94,SSW,212,0.0,0.0,75,0.00,,,0.01,Wunderground v.1.15,2013-04-01 02:32:00,
2013-03-31 21:37:00,49.8,42.5,29.94,SSW,212,0.0,1.0,76,0.00,,,0.01,Wunderground v.1.15,2013-04-01 02:37:00,
2013-03-31 21:42:00,49.4,42.5,29.95,SSW,212,0.0,0.0,77,0.00,,,0.01,Wunderground v.1.15,2013-04-01 02:42:00,
2013-03-31 21:47:00,49.1,42.2,29.95,SSW,212,0.0,0.0,77,0.00,,,0.01,Wunderground v.1.15,2013-04-01 02:47:00,
2013-03-31 21:53:00,48.9,42.3,29.95,SSW,212,0.0,0.0,78,0.00,,,0.01,Wunderground v.1.15,2013-04-01 02:53:00,
2013-03-31 21:58:00,48.5,42.0,29.95,SSW,212,0.0,0.0,78,0.00,,,0.01,Wunderground v.1.15,2013-04-01 02:58:00,
2013-03-31 22:03:00,48.0,41.8,29.95,SSW,212,0.0,0.0,79,0.00,,,0.01,Wunderground v.1.15,2013-04-01 03:03:00,
2013-03-31 22:08:00,47.6,42.1,29.95,SSW,212,0.0,0.0,81,0.00,,,0.01,Wunderground v.1.15,2013-04-01 03:08:00,
2013-03-31 22:13:00,46.9,41.4,29.95,SSW,212,0.0,0.0,81,0.00,,,0.01,Wunderground v.1.15,2013-04-01 03:13:00,
2013-03-31 22:18:00,46.4,41.5,29.96,SSW,212,0.0,0.0,83,0.00,,,0.01,Wunderground v.1.15,2013-04-01 03:18:00,
2013-03-31 22:23:00,46.0,41.7,29.96,SSW,212,0.0,0.0,85,0.00,,,0.01,Wunderground v.1.15,2013-04-01 03:23:00,
2013-03-31 22:28:00,46.0,41.7,29.96,SSW,212,0.0,0.0,85,0.00,,,0.01,Wunderground v.1.15,2013-04-01 03:28:00,
2013-03-31 22:33:00,46.0,41.7,29.96,SSW,212,0.0,0.0,85,0.00,,,0.01,Wunderground v.1.15,2013-04-01 03:33:00,
2013-03-31 22:38:00,46.1,41.8,29.96,SSW,212,0.0,0.0,85,0.00,,,0.01,Wunderground v.1.15,2013-04-01 03:38:00,
2013-03-31 22:43:00,45.9,41.6,29.96,SSW,212,0.0,0.0,85,0.00,,,0.01,Wunderground v.1.15,2013-04-01 03:43:00,
2013-03-31 22:48:00,45.6,41.7,29.96,SSW,212,0.0,0.0,86,0.00,,,0.01,Wunderground v.1.15,2013-04-01 03:48:00,
2013-03-31 22:53:00,45.4,41.5,29.96,SSW,212,0.0,0.0,86,0.00,,,0.01,Wunderground v.1.15,2013-04-01 03:53:00,
2013-03-31 22:58:00,45.4,42.1,29.96,SSW,212,0.0,0.0,88,0.00,,,0.01,Wunderground v.1.15,2013-04-01 03:58:00,
2013-03-31 23:00:00,45.4,42.1,29.96,SSW,212,0.0,0.0,88,0.00,,,0.01,Wunderground v.1.15,2013-04-01 04:00:00,
2013-03-31 23:05:00,45.4,42.1,29.97,SSW,212,0.0,0.0,88,0.00,,,0.01,Wunderground v.1.15,2013-04-01 04:05:00,
2013-03-31 23:10:00,45.2,41.9,29.97,SSW,212,0.0,0.0,88,0.00,,,0.01,Wunderground v.1.15,2013-04-01 04:10:00,
2013-03-31 23:12:00,45.2,41.9,29.97,SSW,212,0.0,0.0,88,0.00,,,0.01,Wunderground v.1.15,2013-04-01 04:12:00,
2013-03-31 23:17:00,45.1,41.8,29.96,SSW,212,0.0,0.0,88,0.00,,,0.01,Wunderground v.1.15,2013-04-01 04:17:00,
2013-03-31 23:22:00,44.9,41.6,29.96,SSW,212,0.0,0.0,88,0.00,,,0.01,Wunderground v.1.15,2013-04-01 04:22:00,
2013-03-31 23:27:00,44.7,41.4,29.97,SSW,212,0.0,0.0,88,0.00,,,0.01,Wunderground v.1.15,2013-04-01 04:27:00,
2013-03-31 23:33:00,44.6,41.6,29.96,SSW,212,0.0,0.0,89,0.00,,,0.01,Wunderground v.1.15,2013-04-01 04:33:00,
2013-03-31 23:38:00,44.4,41.4,29.97,SSW,212,0.0,0.0,89,0.00,,,0.01,Wunderground v.1.15,2013-04-01 04:38:00,
2013-03-31 23:43:00,44.4,41.4,29.97,SSW,212,0.0,0.0,89,0.00,,,0.01,Wunderground v.1.15,2013-04-01 04:43:00,
2013-03-31 23:48:00,44.2,41.2,29.97,SW,218,0.0,0.0,89,0.00,,,0.01,Wunderground v.1.15,2013-04-01 04:48:00,
2013-03-31 23:53:00,44.0,41.0,29.97,SW,217,0.0,0.0,89,0.00,,,0.01,Wunderground v.1.15,2013-04-01 04:53:00,
2013-03-31 23:58:00,43.9,40.9,29.96,SW,218,0.0,0.0,89,0.00,,,0.01,Wunderground v.1.15,2013-04-01 04:58:00,